Location: Mahannah Oil Field
(37.4664°N, 96.6003°W)
Time: 03:35:35
(UTC+00:00)

A-11 Canister half - Pass Details

Date: 02 February 2021
Orbit: 1525 x 1684 km, 47.3° (Epoch: 02 March)

Event Time Altitude Azimuth Distance (km) Brightness Sun altitude
Rises 19:05:37 0° 250° (WSW) 4,671 11.9 35.6°
Reaches altitude 10° 19:08:42 10° 253° (WSW) 3,686 11.4 35.5°
Maximum altitude 19:17:55 67° 335° (NNW) 1,638 9.5 35.2°
Drops below altitude 10° 19:27:18 10° 58° (ENE) 3,741 10.8 34.8°
Sets 19:30:27 0° 61° (ENE) 4,744 11.2 34.7°
